This demonstration page uses our WeatherBlox Daily Observations layout. Learn more.

Hourly Observations for December 29, 2019

Temp ( °F °C ) Dew Point ( °F °C ) Humidity (%) Winds ( mph kmh ) Pressure ( in mb ) Visibility ( mi km ) Precip ( " mm )
12:15 am 00:15 Cloudy with Light Snow 29 -1.6 29 -1.7 99 99 NW 16 26 29.69 1005 1.5 2.41401 0 0
12:35 am 00:35 Cloudy with Light Snow 29 -1.7 28 -2 98 98 NW 16 26 29.7 1006 1.5 2.41401 0 0
12:55 am 00:55 Cloudy with Light Snow 29 -1.7 28 -2 98 98 NW 16 26 29.7 1006 3 4.82802 0 0
1:15 am 01:15 Cloudy with Light Snow 28 -2 28 -2.2 99 99 NW 16 26 29.7 1006 3 4.82802 0 0
1:35 am 01:35 Cloudy with Light Snow 28 -2 28 -2.3 98 98 NW 16 26 29.71 1006 2 3.21868 0 0
1:55 am 01:55 Cloudy with Light Snow 28 -2.1 28 -2.5 97 97 NW 17 28 29.71 1006 2.5 4.02335 0 0
2:15 am 02:15 Windy with Snow Likely 28 -2.2 28 -2.5 98 98 NW 20 31 29.71 1006 1.5 2.41401 0 0
2:35 am 02:35 Windy with Snow Likely 28 -2.3 28 -2.5 99 99 NW 22 35 29.72 1006 1.25 2.011675 0 0
2:55 am 02:55 Cloudy with Light Snow 28 -2.3 28 -2.5 99 99 NW 16 26 29.72 1006 2 3.21868 0 0
3:15 am 03:15 Windy with Snow Likely 28 -2.2 28 -2.5 98 98 NW 23 37 29.71 1006 3 4.82802 0 0
3:35 am 03:35 Windy with Snow Likely 28 -2.5 27 -3 96 96 NW 23 37 29.73 1007 2.5 4.02335 0 0
3:55 am 03:55 Cloudy with Light Snow 27 -2.6 26 -3.2 96 96 NW 18 30 29.73 1007 3 4.82802 0 0
4:15 am 04:15 Cloudy with Light Snow 27 -2.6 26 -3.2 96 96 NW 17 28 29.73 1007 2.5 4.02335 0 0
4:35 am 04:35 Cloudy with Light Snow 27 -2.6 26 -3.1 96 96 NW 16 26 29.72 1006 3 4.82802 0 0
4:55 am 04:55 Cloudy with Light Snow 27 -2.7 26 -3.1 97 97 NW 17 28 29.73 1007 2 3.21868 0 0
5:15 am 05:15 Cloudy with Light Snow 27 -2.8 26 -3.3 96 96 NW 16 26 29.73 1007 2.5 4.02335 0 0
5:35 am 05:35 Cloudy with Light Snow 27 -2.8 26 -3.5 95 95 NW 17 28 29.73 1007 3 4.82802 0 0
5:55 am 05:55 Windy with Snow Likely 27 -3 26 -3.5 96 96 NW 20 31 29.73 1007 2 3.21868 0 0
6:15 am 06:15 Windy with Snow Likely 26 -3.5 25 -4.1 96 96 NW 21 33 29.73 1007 1.5 2.41401 0 0
6:35 am 06:35 Windy with Snow Likely 26 -3.4 25 -3.9 96 96 WNW 20 31 29.73 1007 1.5 2.41401 0 0
6:55 am 06:55 Windy with Snow Likely 26 -3.5 25 -4 96 96 WNW 23 37 29.73 1007 1.75 2.816345 0 0
7:15 am 07:15 Windy with Snow Likely 26 -3.5 25 -4 96 96 WNW 22 35 29.73 1007 1.75 2.816345 0 0
7:35 am 07:35 Windy with Snow Likely 26 -3.5 24 -4.3 94 94 NW 25 41 29.73 1007 5 8.0467 0 0
7:55 am 07:55 Windy with Snow Likely 26 -3.5 24 -4.5 93 93 WNW 20 31 29.73 1007 5 8.0467 0 0
8:15 am 08:15 Cloudy with Mist and Fog 26 -3.5 24 -4.3 94 94 WNW 24 39 29.73 1007 4 6.43736 0 0
8:35 am 08:35 Windy with Snow Likely 26 -3.5 24 -4.3 94 94 WNW 20 31 29.74 1007 3 4.82802 0 0
8:55 am 08:55 Windy with Snow Likely 26 -3.3 24 -4.3 93 93 WNW 22 35 29.74 1007 3 4.82802 0 0
9:15 am 09:15 Cloudy with Mist and Fog 26 -3.1 25 -4.1 93 93 WNW 22 35 29.73 1007 4 6.43736 0 0
9:35 am 09:35 Windy with Snow Likely 27 -3 25 -4 93 93 NW 22 35 29.74 1007 2 3.21868 0 0
9:55 am 09:55 Windy with Snow Likely 27 -3 25 -3.8 94 94 WNW 22 35 29.74 1007 1.5 2.41401 0 0
10:15 am 10:15 Cloudy with Light Snow 27 -2.8 26 -3.6 94 94 WNW 17 28 29.75 1007 1.25 2.011675 0 0
10:35 am 10:35 Cloudy with Light Snow 27 -2.7 26 -3.5 94 94 WNW 18 30 29.75 1007 1 1.60934 0 0
10:55 am 10:55 Windy with Snow Likely 27 -2.7 26 -3.5 94 94 WNW 22 35 29.75 1007 1 1.60934 0 0
11:15 am 11:15 Cloudy with Light Snow 27 -2.7 26 -3.5 94 94 WNW 18 30 29.74 1007 1 1.60934 0 0
11:35 am 11:35 Cloudy with Light Snow 28 -2.5 26 -3.3 94 94 WNW 18 30 29.74 1007 1.25 2.011675 0 0
11:55 am 11:55 Cloudy with Light Snow 28 -2.4 26 -3.4 93 93 WNW 16 26 29.73 1007 1.25 2.011675 0 0
12:15 pm 12:15 Cloudy with Light Snow 28 -2.1 26 -3.2 92 92 NW 17 28 29.72 1007 2.5 4.02335 0 0
12:35 pm 12:35 Windy with Snow Likely 28 -2.1 27 -3 94 94 WNW 21 33 29.71 1006 1.25 2.011675 0.01 0.254
12:55 pm 12:55 Windy with Snow Likely 28 -2.1 27 -3 94 94 NW 22 35 29.71 1006 1 1.60934 0.01 0.254
1:15 pm 13:15 Windy with Snow Likely 28 -2.2 27 -3 94 94 NW 23 37 29.7 1006 1 1.60934 0 0
1:35 pm 13:35 Cloudy with Light Snow 28 -2.1 27 -2.8 95 95 NW 18 30 29.7 1006 1 1.60934 0 0
1:55 pm 13:55 Windy with Snow Likely 28 -2.1 27 -3 94 94 NW 22 35 29.7 1006 1.5 2.41401 0 0
2:15 pm 14:15 Windy with Snow Likely 28 -2.1 27 -3 94 94 NW 23 37 29.7 1006 1 1.60934 0 0
2:35 pm 14:35 Windy with Snow Likely 28 -2.2 27 -3 94 94 NW 21 33 29.71 1006 1.25 2.011675 0 0
2:55 pm 14:55 Windy with Snow Likely 28 -2 26 -3.5 90 90 NW 21 33 29.71 1006 3 4.82802 0.01 0.254
3:15 pm 15:15 Windy with Snow Likely 29 -1.7 26 -3.5 88 88 NW 21 33 29.71 1006 2.5 4.02335 0 0
3:35 pm 15:35 Windy with Snow Likely 29 -1.6 26 -3.5 87 87 NW 23 37 29.72 1006 3 4.82802 0 0
3:55 pm 15:55 Windy with Snow Likely 29 -1.5 26 -3.5 86 86 NW 24 39 29.73 1007 3 4.82802 0 0
4:15 pm 16:15 Windy with Snow Likely 29 -1.5 26 -3.1 89 89 NW 28 44 29.74 1007 2.5 4.02335 0 0
4:35 pm 16:35 Windy with Snow Likely 29 -1.5 26 -3.1 89 89 NW 29 46 29.75 1007 2 3.21868 0 0
4:55 pm 16:55 Windy with Snow Likely 29 -1.5 26 -3.1 89 89 NW 25 41 29.75 1007 3 4.82802 0 0
5:15 pm 17:15 Cloudy with Mist and Fog 29 -1.5 26 -3.1 89 89 NW 26 43 29.76 1008 2.5 4.02335 0 0
5:35 pm 17:35 Cloudy with Mist and Fog 29 -1.5 26 -3.1 89 89 NW 22 35 29.77 1008 4 6.43736 0 0
5:55 pm 17:55 Cloudy with Mist and Fog 29 -1.5 27 -3 90 90 NW 25 41 29.78 1008 4 6.43736 0 0
6:15 pm 18:15 Cloudy with Mist and Fog 29 -1.5 27 -3 90 90 NW 22 35 29.78 1008 4 6.43736 0 0
6:35 pm 18:35 Cloudy with Mist and Fog 29 -1.5 27 -3 90 90 NW 22 35 29.79 1009 5 8.0467 0 0
6:55 pm 18:55 Cloudy with Mist and Fog 29 -1.5 27 -3 90 90 NW 25 41 29.79 1009 5 8.0467 0 0
7:15 pm 19:15 Cloudy with Mist and Fog 30 -1.3 27 -3 88 88 NW 28 44 29.8 1009 4 6.43736 0 0
7:35 pm 19:35 Cloudy with Mist and Fog 29 -1.5 26 -3.2 88 88 NW 23 37 29.8 1009 4 6.43736 0 0
7:55 pm 19:55 Mostly Cloudy with Mist and Fog 29 -1.7 25 -3.8 86 86 NW 23 37 29.81 1009 4 6.43736 0 0
8:15 pm 20:15 Partly Cloudy with Mist and Fog 28 -2.1 24 -4.5 84 84 NW 24 39 29.81 1010 5 8.0467 0 0
8:35 pm 20:35 Partly Cloudy 28 -2.2 23 -4.8 83 83 NW 21 33 29.81 1010 10 16.0934 0 0
8:55 pm 20:55 Clear 27 -2.6 23 -5 84 84 NW 20 31 29.83 1010 10 16.0934 0 0
9:15 pm 21:15 Clear 28 -2.5 23 -4.8 84 84 WNW 21 33 29.83 1010 7 11.26538 0 0
9:35 pm 21:35 Clear 28 -2.3 23 -4.8 83 83 WNW 24 39 29.84 1010 10 16.0934 0 0
9:55 pm 21:55 Partly Cloudy 28 -2 24 -4.7 82 82 WNW 22 35 29.83 1010 10 16.0934 0 0
10:15 pm 22:15 Partly Cloudy 28 -2.1 23 -4.9 81 81 WNW 22 35 29.84 1011 10 16.0934 0 0
10:35 pm 22:35 Clear 28 -2.1 23 -5 81 81 WNW 23 37 29.84 1011 10 16.0934 0 0
10:55 pm 22:55 Clear 28 -2.1 23 -5 81 81 WNW 21 33 29.85 1011 10 16.0934 0 0
11:15 pm 23:15 Clear 28 -2.1 23 -5 81 81 WNW 22 35 29.85 1011 10 16.0934 0 0
11:35 pm 23:35 Clear 28 -2.1 23 -5 81 81 NW 25 41 29.86 1011 10 16.0934 0 0
11:55 pm 23:55 Clear 28 -2.3 23 -5.1 81 81 WNW 20 31 29.87 1011 10 16.0934 0 0

Powered by AerisWeather